Time,TemperatureF,DewpointF,PressureIn,WindDirection,WindDirectionDegrees,WindSpeedMPH,WindSpeedGustMPH,Humidity,HourlyPrecipIn,Conditions,Clouds,dailyrainin,SoftwareType,DateUTC
2013-01-12 00:11:00,48.6,46.0,29.91,SW,224,5.0,11.0,90,0.00,,,0.00,weatherlink.com 1.10,2013-01-12 05:11:00,
2013-01-12 00:26:00,48.1,46.0,29.91,SSE,165,2.0,10.0,91,0.00,,,0.00,weatherlink.com 1.10,2013-01-12 05:26:00,
2013-01-12 00:41:00,47.7,45.0,29.90,SSE,166,3.0,7.0,91,0.00,,,0.00,weatherlink.com 1.10,2013-01-12 05:41:00,
2013-01-12 00:56:00,47.6,45.0,29.89,South,186,4.0,7.0,92,0.00,,,0.00,weatherlink.com 1.10,2013-01-12 05:56:00,
2013-01-12 01:11:00,47.8,46.0,29.90,SSW,197,10.0,10.0,93,0.00,,,0.00,weatherlink.com 1.10,2013-01-12 06:11:00,
2013-01-12 01:26:00,47.9,46.0,29.91,SW,218,6.0,12.0,92,0.00,,,0.00,weatherlink.com 1.10,2013-01-12 06:26:00,
2013-01-12 01:41:00,47.6,45.0,29.91,SW,214,8.0,10.0,92,0.00,,,0.00,weatherlink.com 1.10,2013-01-12 06:41:00,
2013-01-12 01:56:00,47.5,45.0,29.92,SSW,200,4.0,12.0,92,0.00,,,0.00,weatherlink.com 1.10,2013-01-12 06:56:00,
2013-01-12 02:11:00,47.4,46.0,29.92,SSE,148,3.0,11.0,93,0.00,,,0.00,weatherlink.com 1.10,2013-01-12 07:11:00,
2013-01-12 02:26:00,47.5,46.0,29.93,South,187,4.0,10.0,93,0.00,,,0.00,weatherlink.com 1.10,2013-01-12 07:26:00,
2013-01-12 02:41:00,47.4,46.0,29.92,SSW,197,4.0,9.0,93,0.00,,,0.00,weatherlink.com 1.10,2013-01-12 07:41:00,
2013-01-12 02:56:00,47.4,46.0,29.92,SSW,195,3.0,9.0,93,0.00,,,0.00,weatherlink.com 1.10,2013-01-12 07:56:00,
2013-01-12 03:11:00,47.5,46.0,29.93,South,188,5.0,8.0,93,0.00,,,0.00,weatherlink.com 1.10,2013-01-12 08:11:00,
2013-01-12 03:26:00,47.6,45.0,29.92,South,173,4.0,7.0,92,0.00,,,0.00,weatherlink.com 1.10,2013-01-12 08:26:00,
2013-01-12 03:41:00,47.7,46.0,29.93,SSW,197,5.0,8.0,92,0.00,,,0.00,weatherlink.com 1.10,2013-01-12 08:41:00,
2013-01-12 03:56:00,47.9,46.0,29.92,South,184,7.0,8.0,92,0.00,,,0.00,weatherlink.com 1.10,2013-01-12 08:56:00,
2013-01-12 04:12:00,48.0,46.0,29.91,SSW,194,6.0,9.0,92,0.00,,,0.00,weatherlink.com 1.10,2013-01-12 09:12:00,
2013-01-12 04:27:00,48.4,46.0,29.91,SSW,195,5.0,10.0,91,0.00,,,0.00,weatherlink.com 1.10,2013-01-12 09:27:00,
2013-01-12 04:42:00,48.7,46.0,29.91,SSW,204,6.0,13.0,91,0.00,,,0.00,weatherlink.com 1.10,2013-01-12 09:42:00,
2013-01-12 04:57:00,48.6,46.0,29.91,SSW,198,7.0,11.0,91,0.00,,,0.00,weatherlink.com 1.10,2013-01-12 09:57:00,
2013-01-12 05:12:00,48.6,46.0,29.91,SSW,208,4.0,11.0,90,0.00,,,0.00,weatherlink.com 1.10,2013-01-12 10:12:00,
2013-01-12 05:27:00,48.3,46.0,29.91,South,190,5.0,10.0,90,0.00,,,0.00,weatherlink.com 1.10,2013-01-12 10:27:00,
2013-01-12 05:42:00,48.3,46.0,29.92,SSW,211,10.0,11.0,90,0.00,,,0.00,weatherlink.com 1.10,2013-01-12 10:42:00,
2013-01-12 05:57:00,48.2,46.0,29.92,South,188,4.0,12.0,90,0.00,,,0.00,weatherlink.com 1.10,2013-01-12 10:57:00,
2013-01-12 06:13:00,47.9,46.0,29.93,SSW,195,8.0,12.0,91,0.00,,,0.00,weatherlink.com 1.10,2013-01-12 11:13:00,
2013-01-12 06:27:00,47.8,45.0,29.93,SSW,212,10.0,12.0,91,0.00,,,0.00,weatherlink.com 1.10,2013-01-12 11:27:00,
2013-01-12 06:43:00,47.8,45.0,29.93,South,178,5.0,13.0,91,0.00,,,0.00,weatherlink.com 1.10,2013-01-12 11:43:00,
2013-01-12 06:57:00,47.7,45.0,29.93,SSW,210,11.0,13.0,91,0.00,,,0.00,weatherlink.com 1.10,2013-01-12 11:57:00,
2013-01-12 07:12:00,47.9,46.0,29.93,SW,225,9.0,14.0,91,0.00,,,0.00,weatherlink.com 1.10,2013-01-12 12:12:00,
2013-01-12 07:27:00,47.9,46.0,29.92,South,181,8.0,12.0,91,0.00,,,0.00,weatherlink.com 1.10,2013-01-12 12:27:00,
2013-01-12 07:42:00,48.1,45.0,29.93,South,181,8.0,13.0,90,0.00,,,0.00,weatherlink.com 1.10,2013-01-12 12:42:00,
2013-01-12 07:57:00,48.3,46.0,29.93,SW,226,10.0,16.0,90,0.00,,,0.00,weatherlink.com 1.10,2013-01-12 12:57:00,
2013-01-12 08:12:00,48.5,46.0,29.94,SSW,194,7.0,15.0,90,0.00,,,0.00,weatherlink.com 1.10,2013-01-12 13:12:00,
2013-01-12 08:27:00,49.0,46.0,29.93,SW,214,11.0,18.0,89,0.00,,,0.00,weatherlink.com 1.10,2013-01-12 13:27:00,
2013-01-12 08:42:00,49.4,46.0,29.93,SSW,210,6.0,16.0,88,0.00,,,0.00,weatherlink.com 1.10,2013-01-12 13:42:00,
2013-01-12 08:57:00,49.7,46.0,29.95,SSW,204,8.0,17.0,88,0.00,,,0.00,weatherlink.com 1.10,2013-01-12 13:57:00,
2013-01-12 09:12:00,50.0,47.0,29.93,SSW,211,10.0,18.0,88,0.00,,,0.00,weatherlink.com 1.10,2013-01-12 14:12:00,
2013-01-12 09:28:00,51.2,48.0,29.94,SW,229,7.0,15.0,87,0.00,,,0.00,weatherlink.com 1.10,2013-01-12 14:28:00,
2013-01-12 09:43:00,51.7,48.0,29.94,SW,232,13.0,16.0,86,0.00,,,0.00,weatherlink.com 1.10,2013-01-12 14:43:00,
2013-01-12 09:58:00,51.9,48.0,29.94,SSW,205,18.0,18.0,86,0.00,,,0.00,weatherlink.com 1.10,2013-01-12 14:58:00,
2013-01-12 10:13:00,52.0,48.0,29.94,SSW,207,4.0,15.0,87,0.00,,,0.00,weatherlink.com 1.10,2013-01-12 15:13:00,
2013-01-12 10:28:00,52.7,49.0,29.94,SW,229,12.0,15.0,86,0.00,,,0.00,weatherlink.com 1.10,2013-01-12 15:28:00,
2013-01-12 10:43:00,53.8,49.0,29.94,WSW,238,6.0,17.0,85,0.00,,,0.00,weatherlink.com 1.10,2013-01-12 15:43:00,
2013-01-12 10:58:00,54.9,50.0,29.94,SW,228,10.0,17.0,83,0.00,,,0.00,weatherlink.com 1.10,2013-01-12 15:58:00,
2013-01-12 11:13:00,56.0,50.0,29.93,SW,218,12.0,17.0,81,0.00,,,0.00,weatherlink.com 1.10,2013-01-12 16:13:00,
2013-01-12 11:28:00,56.8,51.0,29.92,SW,216,10.0,22.0,80,0.00,,,0.00,weatherlink.com 1.10,2013-01-12 16:28:00,
2013-01-12 11:43:00,57.9,51.0,29.92,WSW,249,11.0,23.0,78,0.00,,,0.00,weatherlink.com 1.10,2013-01-12 16:43:00,
2013-01-12 11:58:00,57.9,51.0,29.92,SW,236,12.0,23.0,77,0.00,,,0.00,weatherlink.com 1.10,2013-01-12 16:58:00,
2013-01-12 12:13:00,57.9,51.0,29.92,West,262,5.0,19.0,77,0.00,,,0.00,weatherlink.com 1.10,2013-01-12 17:13:00,
2013-01-12 12:28:00,58.2,51.0,29.91,WSW,240,14.0,18.0,77,0.00,,,0.00,weatherlink.com 1.10,2013-01-12 17:28:00,
2013-01-12 12:43:00,58.4,51.0,29.90,SW,235,9.0,20.0,77,0.00,,,0.00,weatherlink.com 1.10,2013-01-12 17:43:00,
2013-01-12 12:58:00,58.9,52.0,29.90,West,263,10.0,26.0,77,0.00,,,0.00,weatherlink.com 1.10,2013-01-12 17:58:00,
2013-01-12 13:14:00,59.0,52.0,29.89,SW,226,10.0,23.0,77,0.00,,,0.00,weatherlink.com 1.10,2013-01-12 18:14:00,
2013-01-12 13:29:00,59.1,52.0,29.89,SW,232,8.0,26.0,76,0.00,,,0.00,weatherlink.com 1.10,2013-01-12 18:29:00,
2013-01-12 13:44:00,58.8,52.0,29.89,WSW,245,15.0,18.0,77,0.00,,,0.00,weatherlink.com 1.10,2013-01-12 18:44:00,
2013-01-12 13:59:00,58.3,51.0,29.89,SW,236,15.0,21.0,78,0.00,,,0.00,weatherlink.com 1.10,2013-01-12 18:59:00,
2013-01-12 14:14:00,58.3,51.0,29.89,WSW,245,14.0,20.0,78,0.00,,,0.00,weatherlink.com 1.10,2013-01-12 19:14:00,
2013-01-12 14:29:00,58.1,52.0,29.89,SW,222,11.0,22.0,79,0.00,,,0.00,weatherlink.com 1.10,2013-01-12 19:29:00,
2013-01-12 14:44:00,57.9,51.0,29.89,SW,236,10.0,22.0,79,0.00,,,0.00,weatherlink.com 1.10,2013-01-12 19:44:00,
2013-01-12 14:59:00,58.1,52.0,29.90,SW,233,10.0,18.0,79,0.00,,,0.00,weatherlink.com 1.10,2013-01-12 19:59:00,
2013-01-12 15:14:00,58.1,51.0,29.89,SW,214,12.0,20.0,78,0.00,,,0.00,weatherlink.com 1.10,2013-01-12 20:14:00,
2013-01-12 15:29:00,58.3,52.0,29.91,WSW,238,8.0,18.0,79,0.00,,,0.00,weatherlink.com 1.10,2013-01-12 20:29:00,
2013-01-12 15:44:00,59.0,52.0,29.91,SSW,208,7.0,14.0,77,0.00,,,0.00,weatherlink.com 1.10,2013-01-12 20:44:00,
2013-01-12 15:59:00,59.0,52.0,29.91,South,183,5.0,14.0,77,0.00,,,0.00,weatherlink.com 1.10,2013-01-12 20:59:00,
2013-01-12 16:14:00,58.6,51.0,29.92,SW,218,10.0,13.0,77,0.00,,,0.00,weatherlink.com 1.10,2013-01-12 21:14:00,
2013-01-12 16:29:00,58.0,51.0,29.93,SW,233,8.0,15.0,78,0.00,,,0.00,weatherlink.com 1.10,2013-01-12 21:29:00,
2013-01-12 16:44:00,57.4,51.0,29.93,SW,224,8.0,13.0,79,0.00,,,0.00,weatherlink.com 1.10,2013-01-12 21:44:00,
2013-01-12 16:59:00,56.8,51.0,29.93,SW,218,9.0,9.0,81,0.00,,,0.00,weatherlink.com 1.10,2013-01-12 21:59:00,
2013-01-12 17:14:00,56.2,51.0,29.93,SSW,211,7.0,10.0,82,0.00,,,0.00,weatherlink.com 1.10,2013-01-12 22:14:00,
2013-01-12 17:29:00,55.5,50.0,29.93,SSW,205,4.0,9.0,83,0.00,,,0.00,weatherlink.com 1.10,2013-01-12 22:29:00,
2013-01-12 17:44:00,55.1,50.0,29.94,SW,229,4.0,8.0,84,0.00,,,0.00,weatherlink.com 1.10,2013-01-12 22:44:00,
2013-01-12 17:59:00,54.8,50.0,29.94,SSW,210,5.0,7.0,85,0.00,,,0.00,weatherlink.com 1.10,2013-01-12 22:59:00,
2013-01-12 18:14:00,54.2,50.0,29.94,SSW,205,4.0,7.0,86,0.00,,,0.00,weatherlink.com 1.10,2013-01-12 23:14:00,
2013-01-12 18:29:00,53.8,50.0,29.94,SSW,208,5.0,8.0,86,0.00,,,0.00,weatherlink.com 1.10,2013-01-12 23:29:00,
2013-01-12 18:44:00,53.4,50.0,29.95,SSW,198,4.0,7.0,87,0.00,,,0.00,weatherlink.com 1.10,2013-01-12 23:44:00,
2013-01-12 18:59:00,52.7,49.0,29.95,SW,226,3.0,8.0,88,0.00,,,0.00,weatherlink.com 1.10,2013-01-12 23:59:00,
2013-01-12 19:14:00,52.2,49.0,29.95,SSW,212,5.0,6.0,89,0.00,,,0.00,weatherlink.com 1.10,2013-01-13 00:14:00,
2013-01-12 19:29:00,52.4,50.0,29.94,SW,228,9.0,9.0,90,0.00,,,0.00,weatherlink.com 1.10,2013-01-13 00:29:00,
2013-01-12 19:44:00,52.6,50.0,29.95,SW,235,5.0,10.0,90,0.00,,,0.00,weatherlink.com 1.10,2013-01-13 00:44:00,
2013-01-12 19:59:00,52.6,50.0,29.95,WSW,243,9.0,11.0,89,0.00,,,0.00,weatherlink.com 1.10,2013-01-13 00:59:00,
2013-01-12 20:14:00,52.8,50.0,29.95,SW,217,9.0,11.0,90,0.00,,,0.00,weatherlink.com 1.10,2013-01-13 01:14:00,
2013-01-12 20:29:00,52.7,50.0,29.95,SW,221,6.0,10.0,89,0.00,,,0.00,weatherlink.com 1.10,2013-01-13 01:29:00,
2013-01-12 20:44:00,52.7,50.0,29.95,SW,219,7.0,10.0,90,0.00,,,0.00,weatherlink.com 1.10,2013-01-13 01:44:00,
2013-01-12 20:59:00,52.9,50.0,29.95,SSW,205,5.0,11.0,90,0.00,,,0.00,weatherlink.com 1.10,2013-01-13 01:59:00,
2013-01-12 21:14:00,53.1,50.0,29.95,SSW,201,6.0,8.0,89,0.00,,,0.00,weatherlink.com 1.10,2013-01-13 02:14:00,
2013-01-12 21:30:00,53.1,50.0,29.93,SW,217,4.0,8.0,90,0.00,,,0.00,weatherlink.com 1.10,2013-01-13 02:30:00,
2013-01-12 21:45:00,53.0,50.0,29.93,SSW,205,7.0,8.0,90,0.00,,,0.00,weatherlink.com 1.10,2013-01-13 02:45:00,
2013-01-12 22:00:00,53.0,50.0,29.93,SSW,211,7.0,9.0,90,0.00,,,0.00,weatherlink.com 1.10,2013-01-13 03:00:00,
2013-01-12 22:15:00,53.2,50.0,29.93,SW,217,6.0,11.0,90,0.00,,,0.00,weatherlink.com 1.10,2013-01-13 03:15:00,
2013-01-12 22:30:00,53.3,51.0,29.92,South,187,7.0,10.0,90,0.00,,,0.00,weatherlink.com 1.10,2013-01-13 03:30:00,
2013-01-12 22:45:00,53.3,51.0,29.91,SSW,204,7.0,10.0,91,0.00,,,0.00,weatherlink.com 1.10,2013-01-13 03:45:00,
2013-01-12 23:00:00,53.0,51.0,29.91,SSW,200,4.0,11.0,91,0.00,,,0.00,weatherlink.com 1.10,2013-01-13 04:00:00,
2013-01-12 23:15:00,53.0,51.0,29.91,South,174,4.0,8.0,91,0.00,,,0.00,weatherlink.com 1.10,2013-01-13 04:15:00,
2013-01-12 23:30:00,52.5,50.0,29.91,SSW,194,4.0,6.0,92,0.00,,,0.00,weatherlink.com 1.10,2013-01-13 04:30:00,
2013-01-12 23:45:00,52.5,50.0,29.91,SSW,200,3.0,6.0,92,0.00,,,0.00,weatherlink.com 1.10,2013-01-13 04:45:00,